Martinsburg, WV

4:26 AM EST on December 07, 2019 (GMT -0500)
Eastern W Va Regional-Shepherd

Weather History for KMRB - October, 2019

Change the Weather History Date:

Saturday, October 19, 2019

  Actual Average Record
Temperature  
Mean Temperature 47 °F 53 °F  
Max Temperature 63 °F 64 °F 85 °F (2016)
Min Temperature 31 °F 41 °F 25 °F (1948)
Degree Days  
Heating Degree Days 18 12  
Month to date heating degree days 148 183  
Since 1 July heating degree days 160 274  
Cooling Degree Days 0 0  
Month to date cooling degree days 37 8  
Year to date cooling degree days 1280 893  
Moisture  
Dew Point 38 °F    
Average Humidity 74    
Maximum Humidity 96    
Minimum Humidity 46    
Precipitation  
Precipitation 0.00 in 0.09 in 1.75 in (1932)
Month to date precipitation 1.80 1.88  
Year to date precipitation 36.70 31.69  
Sea Level Pressure  
Sea Level Pressure 30.05 in    
Wind  
Wind Speed 2 mph ()    
Max Wind Speed 10 mph    
Max Gust Speed 17 mph    
Visibility 9.9 miles    
Events      
T = Trace of Precipitation, MM = Missing Value Source: Averaged Metar Reports

Daily Weather History Graph

Daily Weather History Graph

Search for Another Location

Airport or City:

Astronomy

Oct. 19, 2019 Rise Set
Actual Time 7:25 AM EDT 6:27 PM EDT
Civil Twilight 6:58 AM EDT 6:54 PM EDT
Nautical Twilight 6:27 AM EDT 7:25 PM EDT
Astronomical Twilight 5:56 AM EDT 7:56 PM EDT
Moon 10:35 PM EDT (10/19) 12:54 PM EDT (10/19)
Length of Visible Light 11h 56m
Length of Day
11h 01m
Waning Gibbous, 70% of the Moon is Illuminated
Oct 19
Waning Gibbous
Oct 21
Last Quarter
Oct 27
New
Nov 4
First Quarter
Nov 12
Full

Hourly Weather History & Observations

Time (EDT) Temp. Windchill Dew Point Humidity Pressure Visibility Wind Dir Wind Speed Gust Speed Precip Events Conditions
12:53 AM 37.0 °F - 34.0 °F 89% 30.05 in 10.0 mi Calm Calm - N/A   Clear
1:53 AM 35.1 °F - 33.1 °F 92% 30.06 in 10.0 mi Calm Calm - N/A   Clear
2:53 AM 36.0 °F 33.3 °F 34.0 °F 93% 30.07 in 10.0 mi WSW 3.5 mph - N/A   Clear
3:53 AM 36.0 °F - 34.0 °F 93% 30.09 in 10.0 mi Calm Calm - N/A   Clear
4:53 AM 32.0 °F - 30.9 °F 96% 30.10 in 9.0 mi Calm Calm - N/A   Clear
5:53 AM 33.1 °F - 30.9 °F 92% 30.11 in 10.0 mi Calm Calm - N/A   Clear
6:53 AM 32.0 °F - 30.0 °F 92% 30.12 in 10.0 mi Calm Calm - N/A   Clear
7:53 AM 33.1 °F - 30.9 °F 92% 30.12 in 9.0 mi Calm Calm - N/A   Clear
8:53 AM 37.0 °F - 36.0 °F 96% 30.12 in 9.0 mi Calm Calm - N/A   Clear
9:53 AM 44.1 °F - 37.9 °F 79% 30.12 in 10.0 mi Calm Calm - N/A   Clear
10:53 AM 52.0 °F - 39.9 °F 63% 30.11 in 10.0 mi Calm Calm - N/A   Clear
11:53 AM 55.0 °F - 39.9 °F 57% 30.10 in 10.0 mi Variable 5.8 mph - N/A   Clear
12:53 PM 57.0 °F - 39.9 °F 53% 30.08 in 10.0 mi Variable 4.6 mph - N/A   Clear
1:53 PM 61.0 °F - 39.9 °F 46% 30.05 in 10.0 mi Variable 6.9 mph - N/A   Clear
2:53 PM 61.0 °F - 41.0 °F 48% 30.02 in 10.0 mi Variable 5.8 mph - N/A   Clear
3:53 PM 62.1 °F - 41.0 °F 46% 30.01 in 10.0 mi South 8.1 mph - N/A   Clear
4:53 PM 60.1 °F - 41.0 °F 49% 30.00 in 10.0 mi SSE 9.2 mph - N/A   Clear
5:53 PM 57.9 °F - 42.1 °F 56% 29.99 in 10.0 mi SE 4.6 mph - N/A   Clear
6:53 PM 55.0 °F - 41.0 °F 59% 29.99 in 10.0 mi ESE 3.5 mph - N/A   Clear
7:53 PM 52.0 °F - 42.1 °F 69% 30.00 in 10.0 mi Calm Calm - N/A   Clear
8:53 PM 51.1 °F - 43.0 °F 74% 29.99 in 10.0 mi NNW 3.5 mph - N/A   Clear
9:53 PM 48.9 °F - 43.0 °F 80% 29.98 in 10.0 mi Calm Calm - N/A   Clear
10:53 PM 48.9 °F - 43.0 °F 80% 29.98 in 10.0 mi Calm Calm - N/A   Clear
11:53 PM 48.9 °F - 44.1 °F 83% 29.98 in 10.0 mi Calm Calm - N/A   Clear